GW0692 Weather Reports


Display with metric or nautical units.
time (UTC)temp
F
wind
direction
speed
MPH
gust
MPH
rain 1hr
in
rain 24hr
in
rain mn
in
humidity
%
barometer
mb
20260508025156 55 259 3.0 5.0 0.00 0.00 0.00 20 1018.5
20260508024651 55 259 4.0 5.0 0.00 0.00 0.00 20 1018.2
20260508024149 55 258 2.0 3.0 0.00 0.00 0.00 20 1018.4
20260508023645 56 278 3.0 3.0 0.00 0.00 0.00 19 1018.3
20260508023143 56 265 5.0 7.0 0.00 0.00 0.00 19 1018.4
20260508022638 56 249 4.0 5.0 0.00 0.00 0.00 19 1018.3
20260508022136 57 245 3.0 3.0 0.00 0.00 0.00 19 1018.3
20260508021632 57 247 5.0 7.0 0.00 0.00 0.00 19 1018.2
20260508021127 57 265 4.0 5.0 0.00 0.00 0.00 18 1018.0
20260508020626 57 241 3.0 3.0 0.00 0.00 0.00 18 1018.0
20260508020123 58 254 4.0 5.0 0.00 0.00 0.00 18 1017.9
20260508015620 58 283 3.0 3.0 0.00 0.00 0.00 18 1018.3
20260508015117 59 262 3.0 3.0 0.00 0.00 0.00 18 1018.0
20260508014613 59 262 2.0 2.0 0.00 0.00 0.00 17 1018.0
20260508014110 60 249 4.0 5.0 0.00 0.00 0.00 17 1018.0
20260508013606 60 250 4.0 5.0 0.00 0.00 0.00 17 1018.0
20260508013103 61 280 6.0 7.0 0.00 0.00 0.00 17 1017.8
20260508012600 61 256 4.0 5.0 0.00 0.00 0.00 16 1017.8
20260508012057 61 226 5.0 7.0 0.00 0.00 0.00 16 1017.8
20260508011556 62 287 3.0 5.0 0.00 0.00 0.00 16 1017.5
20260508011053 62 310 4.0 5.0 0.00 0.00 0.00 16 1017.5
20260508010549 62 243 5.0 5.0 0.00 0.00 0.00 16 1018.0
20260508010047 63 241 6.0 9.0 0.00 0.00 0.00 15 1017.8
20260508005543 63 255 3.0 3.0 0.00 0.00 0.00 15 1017.5
20260508005040 64 265 4.0 5.0 0.00 0.00 0.00 15 1017.9
20260508004536 65 242 4.0 5.0 0.00 0.00 0.00 15 1017.5
20260508004033 65 253 3.0 5.0 0.00 0.00 0.00 14 1017.7
20260508003529 66 301 5.0 5.0 0.00 0.00 0.00 14 1017.7
20260508003027 66 326 4.0 5.0 0.00 0.00 0.00 14 1017.7
20260508002523 66 225 5.0 7.0 0.00 0.00 0.00 14 1017.5
20260508002021 66 276 6.0 7.0 0.00 0.00 0.00 14 1017.4
20260508001516 66 254 4.0 5.0 0.00 0.00 0.00 13 1017.5
20260508001013 66 2 7.0 9.0 0.00 0.00 0.00 13 1017.8
20260508000509 66 300 5.0 7.0 0.00 0.00 0.00 13 1017.7
20260508000006 67 231 6.0 7.0 0.00 0.00 0.00 13 1017.8
20260507235502 66 301 5.0 7.0 0.00 0.00 0.00 13 1017.9
20260507235000 67 290 4.0 5.0 0.00 0.00 0.00 12 1017.8
20260507234456 67 250 5.0 7.0 0.00 0.00 0.00 13 1017.7
20260507233953 66 247 3.0 3.0 0.00 0.00 0.00 13 1017.7
20260507233450 67 264 5.0 5.0 0.00 0.00 0.00 13 1017.7
20260507232948 67 255 6.0 9.0 0.00 0.00 0.00 13 1017.9
20260507232444 67 251 5.0 7.0 0.00 0.00 0.00 12 1017.9
20260507231942 66 292 5.0 7.0 0.00 0.00 0.00 13 1018.0
20260507231438 66 216 9.0 12.0 0.00 0.00 0.00 13 1017.9
20260507230935 66 254 11.0 21.0 0.00 0.00 0.00 13 1018.0
20260507230432 67 230 5.0 7.0 0.00 0.00 0.00 14 1018.0
20260507225932 66 276 7.0 10.0 0.00 0.00 0.00 14 1017.8
20260507225429 66 244 6.0 9.0 0.00 0.00 0.00 15 1018.0
20260507224925 66 232 8.0 10.0 0.00 0.00 0.00 16 1018.3
20260507224421 67 268 3.0 3.0 0.00 0.00 0.00 15 1018.2
20260507223918 68 308 5.0 7.0 0.00 0.00 0.00 15 1018.2
20260507223414 68 262 4.0 5.0 0.00 0.00 0.00 16 1018.5
20260507222911 67 276 3.0 3.0 0.00 0.00 0.00 16 1018.5
20260507222408 67 236 13.0 19.0 0.00 0.00 0.00 16 1018.2
20260507221905 68 264 9.0 12.0 0.00 0.00 0.00 16 1018.4
20260507221401 67 270 4.0 5.0 0.00 0.00 0.00 17 1018.2
20260507220857 66 264 4.0 5.0 0.00 0.00 0.00 19 1018.0
20260507220355 69 275 6.0 9.0 0.00 0.00 0.00 18 1018.4
20260507215852 68 290 8.0 10.0 0.00 0.00 0.00 18 1018.5
20260507215348 67 310 6.0 9.0 0.00 0.00 0.00 20 1018.4
20260507214845 65 250 5.0 7.0 0.00 0.00 0.00 21 1018.7
20260507214343 66 270 7.0 12.0 0.00 0.00 0.00 21 1018.8
20260507213838 66 247 3.0 5.0 0.00 0.00 0.00 22 1018.8
20260507213335 66 264 4.0 5.0 0.00 0.00 0.00 22 1018.8
20260507212832 65 249 5.0 5.0 0.00 0.00 0.00 22 1018.8
20260507212327 65 228 5.0 9.0 0.00 0.00 0.00 23 1018.7
20260507211824 65 288 5.0 5.0 0.00 0.00 0.00 23 1019.0
20260507211321 66 234 7.0 9.0 0.00 0.00 0.00 22 1019.2
20260507210818 65 240 6.0 9.0 0.00 0.00 0.00 24 1019.3
20260507210315 65 271 6.0 9.0 0.00 0.00 0.00 23 1019.4
20260507205811 65 274 4.0 5.0 0.00 0.00 0.00 23 1019.7
20260507205309 64 301 5.0 7.0 0.00 0.00 0.00 25 1019.5
20260507204804 67 262 3.0 3.0 0.00 0.00 0.00 24 1019.8
20260507204302 66 245 3.0 5.0 0.00 0.00 0.00 23 1019.7
20260507203800 64 243 4.0 5.0 0.00 0.00 0.00 23 1019.5
20260507203258 64 250 3.0 3.0 0.00 0.00 0.00 25 1019.9
20260507202753 63 232 4.0 5.0 0.00 0.00 0.00 25 1019.9
20260507202249 66 243 7.0 10.0 0.00 0.00 0.00 25 1019.8
20260507201744 64 277 3.0 5.0 0.00 0.00 0.00 26 1019.9
20260507201241 65 268 6.0 9.0 0.00 0.00 0.00 25 1020.0
20260507200738 65 221 1.0 2.0 0.00 0.00 0.00 25 1019.9
20260507200234 64 282 4.0 5.0 0.00 0.00 0.00 25 1019.7
20260507195730 64 339 3.0 3.0 0.00 0.00 0.00 25 1020.0
20260507195228 64 229 4.0 7.0 0.00 0.00 0.00 25 1020.2
20260507194725 65 243 5.0 7.0 0.00 0.00 0.00 25 1020.0
20260507194220 62 228 4.0 5.0 0.00 0.00 0.00 27 1020.2
20260507193717 63 238 6.0 7.0 0.00 0.00 0.00 27 1020.4
20260507193214 61 253 3.0 5.0 0.00 0.00 0.00 27 1020.4
20260507192710 63 271 9.0 12.0 0.00 0.00 0.00 27 1020.7
20260507192207 61 223 4.0 5.0 0.00 0.00 0.00 28 1020.5
20260507191703 63 261 3.0 5.0 0.00 0.00 0.00 27 1020.8
20260507191201 61 286 5.0 7.0 0.00 0.00 0.00 27 1020.7
20260507190657 59 279 4.0 9.0 0.00 0.00 0.00 28 1020.8
20260507190156 61 257 2.0 3.0 0.00 0.00 0.00 25 1020.7
20260507185654 62 256 7.0 12.0 0.00 0.00 0.00 26 1020.8
20260507185150 60 322 2.0 3.0 0.00 0.00 0.00 28 1021.0
20260507184648 61 226 11.0 14.0 0.00 0.00 0.00 27 1020.9
20260507184146 60 263 7.0 12.0 0.00 0.00 0.00 28 1021.0
20260507183642 61 261 7.0 7.0 0.00 0.00 0.00 28 1021.5
20260507183139 60 227 9.0 14.0 0.00 0.00 0.00 29 1021.4
20260507182636 59 315 7.0 10.0 0.00 0.00 0.00 29 1021.4
20260507182132 59 235 5.0 7.0 0.00 0.00 0.00 29 1021.3
20260507181628 59 282 6.0 7.0 0.00 0.00 0.00 29 1021.4
20260507181124 59 304 5.0 7.0 0.00 0.00 0.00 29 1021.4
20260507180621 60 247 5.0 5.0 0.00 0.00 0.00 29 1021.5
20260507180118 58 248 3.0 3.0 0.00 0.00 0.00 31 1021.4
20260507175614 58 251 4.0 5.0 0.00 0.00 0.00 32 1021.3
20260507175112 58 246 3.0 3.0 0.00 0.00 0.00 33 1021.5
20260507174609 58 302 3.0 3.0 0.00 0.00 0.00 32 1021.7
20260507174106 59 314 4.0 9.0 0.00 0.00 0.00 32 1021.5
20260507173603 58 276 2.0 3.0 0.00 0.00 0.00 33 1021.5
20260507173100 60 267 3.0 3.0 0.00 0.00 0.00 32 1021.4
20260507172556 57 243 2.0 3.0 0.00 0.00 0.00 35 1021.5
20260507172053 58 313 4.0 7.0 0.00 0.00 0.00 33 1021.9
20260507171548 57 315 5.0 5.0 0.00 0.00 0.00 34 1021.9
20260507171046 57 235 1.0 2.0 0.00 0.00 0.00 35 1022.0
20260507170543 58 217 5.0 7.0 0.00 0.00 0.00 34 1022.2
20260507170040 57 294 6.0 9.0 0.00 0.00 0.00 35 1022.2
20260507165535 56 269 6.0 7.0 0.00 0.00 0.00 34 1021.9
20260507165032 56 200 2.0 3.0 0.00 0.00 0.00 35 1021.9
20260507164528 56 273 4.0 5.0 0.00 0.00 0.00 35 1022.2
20260507164026 54 269 2.0 3.0 0.00 0.00 0.00 36 1022.0
20260507163522 56 251 1.0 2.0 0.00 0.00 0.00 35 1022.0
20260507163021 55 354 3.0 3.0 0.00 0.00 0.00 36 1022.2
20260507162515 55 202 3.0 3.0 0.00 0.00 0.00 35 1022.0
20260507162012 54 244 3.0 3.0 0.00 0.00 0.00 37 1022.3
20260507161509 53 279 4.0 5.0 0.00 0.00 0.00 37 1022.5
20260507161005 53 223 3.0 3.0 0.00 0.00 0.00 38 1022.3
20260507160501 52 243 2.0 2.0 0.00 0.00 0.00 36 1022.4
20260507155957 52 247 1.0 2.0 0.00 0.00 0.00 36 1022.3
20260507155453 52 248 2.0 3.0 0.00 0.00 0.00 36 1022.2
20260507154950 52 276 4.0 5.0 0.00 0.00 0.00 37 1022.4
20260507154447 52 233 6.0 7.0 0.00 0.00 0.00 38 1022.4
20260507153944 52 115 3.0 3.0 0.00 0.00 0.00 36 1022.4
20260507153441 51 237 2.0 3.0 0.00 0.00 0.00 37 1022.8
20260507152937 51 238 2.0 3.0 0.00 0.00 0.00 40 1022.7
20260507152433 52 275 4.0 5.0 0.00 0.00 0.00 41 1022.9
20260507151929 50 274 5.0 5.0 0.00 0.00 0.00 42 1022.5
20260507151426 49 287 5.0 5.0 0.00 0.00 0.00 44 1022.8
20260507150923 50 60 3.0 3.0 0.00 0.00 0.00 45 1022.7
20260507150420 49 287 1.0 2.0 0.00 0.00 0.00 46 1022.7
20260507145916 49 336 3.0 5.0 0.00 0.00 0.00 46 1022.8
20260507145412 50 327 1.0 2.0 0.00 0.00 0.00 47 1022.4
20260507144909 49 14 1.0 3.0 0.00 0.00 0.00 48 1022.5
20260507144406 48 244 1.0 2.0 0.00 0.00 0.00 49 1022.8
20260507143903 47 339 2.0 3.0 0.00 0.00 0.00 51 1022.9
20260507143401 47 300 4.0 7.0 0.00 0.00 0.00 51 1022.8
20260507142857 47 291 1.0 2.0 0.00 0.00 0.00 51 1022.8
20260507142353 47 251 0.0 2.0 0.00 0.00 0.00 52 1022.7
20260507141850 46 311 0.0 2.0 0.00 0.00 0.00 55 1022.8
20260507141346 46 342 3.0 5.0 0.00 0.00 0.00 55 1022.9
20260507140843 46 39 1.0 3.0 0.00 0.00 0.00 56 1022.7
20260507140340 46 253 0.0 2.0 0.00 0.00 0.00 57 1022.8
20260507135838 44 250 0.0 2.0 0.00 0.00 0.00 58 1022.8
20260507135334 44 243 2.0 3.0 0.00 0.00 0.00 57 1022.7
20260507134832 44 282 1.0 3.0 0.00 0.00 0.00 58 1022.7
20260507134327 43 252 0.0 2.0 0.00 0.00 0.00 59 1022.7
20260507133824 42 326 5.0 7.0 0.00 0.00 0.00 59 1022.5
20260507133319 44 291 3.0 3.0 0.00 0.00 0.00 58 1022.7
20260507132818 43 241 0.0 0.0 0.00 0.00 0.00 59 1022.3
20260507132314 42 267 1.0 2.0 0.00 0.00 0.00 59 1022.8
20260507131811 42 252 0.0 0.0 0.00 0.00 0.00 61 1022.5
20260507131308 41 258 0.0 2.0 0.00 0.00 0.00 61 1022.5
20260507130804 41 304 1.0 2.0 0.00 0.00 0.00 62 1022.3
20260507130302 40 211 0.0 2.0 0.00 0.00 0.00 69 1022.3
20260507125801 42 70 1.0 2.0 0.00 0.00 0.00 57 1022.4
20260507125258 41 246 0.0 2.0 0.00 0.00 0.00 57 1022.4
20260507124755 39 248 0.0 2.0 0.00 0.00 0.00 59 1022.3
20260507124251 38 253 0.0 0.0 0.00 0.00 0.00 57 1022.7
20260507123750 38 247 0.0 2.0 0.00 0.00 0.00 55 1022.4
20260507123247 39 256 0.0 2.0 0.00 0.00 0.00 54 1022.3
20260507122742 39 250 0.0 0.0 0.00 0.00 0.00 54 1022.3
20260507122238 39 253 0.0 0.0 0.00 0.00 0.00 54 1022.2
20260507121734 39 258 0.0 0.0 0.00 0.00 0.00 53 1022.2
20260507121230 37 271 0.0 0.0 0.00 0.00 0.00 57 1021.9
20260507120726 36 257 0.0 0.0 0.00 0.00 0.00 60 1022.3
20260507120224 35 250 0.0 0.0 0.00 0.00 0.00 63 1022.3
20260507115720 33 250 0.0 0.0 0.00 0.00 0.00 75 1022.0
20260507115216 33 257 1.0 2.0 0.00 0.00 0.00 86 1022.2
20260507114711 33 239 1.0 2.0 0.00 0.00 0.00 86 1022.0
20260507114209 33 244 1.0 2.0 0.00 0.00 0.00 85 1022.0
20260507113706 33 254 2.0 2.0 0.00 0.00 0.00 84 1022.2
20260507113203 33 222 1.0 2.0 0.00 0.00 0.00 83 1022.0
20260507112701 34 213 0.0 2.0 0.00 0.00 0.00 81 1022.2
20260507112157 35 44 3.0 3.0 0.00 0.00 0.00 75 1022.2
20260507111655 35 248 0.0 0.0 0.00 0.00 0.00 67 1022.5
20260507111152 35 249 0.0 0.0 0.00 0.00 0.00 67 1022.2
20260507110647 35 252 0.0 0.0 0.00 0.00 0.00 71 1022.2
20260507110144 34 249 0.0 0.0 0.00 0.00 0.00 73 1022.3
20260507105641 34 251 0.0 0.0 0.00 0.00 0.00 78 1022.2
20260507105137 34 253 0.0 0.0 0.00 0.00 0.00 78 1022.2
20260507104634 34 251 2.0 3.0 0.00 0.00 0.00 80 1021.9
20260507104131 33 245 0.0 0.0 0.00 0.00 0.00 84 1022.2
20260507103627 33 248 1.0 2.0 0.00 0.00 0.00 91 1022.2
20260507103124 32 230 3.0 5.0 0.00 0.00 0.00 93 1022.2
20260507102621 31 260 2.0 2.0 0.00 0.00 0.00 94 1022.3
20260507102117 31 236 0.0 0.0 0.00 0.00 0.00 95 1022.3
20260507101613 31 244 2.0 2.0 0.00 0.00 0.00 95 1022.5
20260507101109 31 216 2.0 3.0 0.00 0.00 0.00 95 1022.0
20260507100606 32 79 3.0 3.0 0.00 0.00 0.00 94 1022.4
20260507100104 32 236 2.0 2.0 0.00 0.00 0.00 94 1022.2
20260507095602 32 196 0.0 0.0 0.00 0.00 0.00 93 1022.4
20260507095058 32 209 1.0 2.0 0.00 0.00 0.00 93 1022.3
20260507094553 32 249 0.0 0.0 0.00 0.00 0.00 93 1022.7
20260507094046 32 231 2.0 2.0 0.00 0.00 0.00 91 1022.5
20260507093543 32 248 0.0 0.0 0.00 0.00 0.00 89 1022.3
20260507093042 32 249 2.0 2.0 0.00 0.00 0.00 88 1022.7
20260507092537 33 261 0.0 2.0 0.00 0.00 0.00 89 1022.3
20260507092035 33 268 2.0 2.0 0.00 0.00 0.00 90 1022.4
20260507091531 33 218 2.0 2.0 0.00 0.00 0.00 91 1022.0
20260507091027 33 228 5.0 7.0 0.00 0.00 0.00 93 1022.2
20260507090523 33 238 3.0 3.0 0.00 0.00 0.00 94 1022.2
20260507090020 33 227 4.0 5.0 0.00 0.00 0.00 95 1022.4
20260507085518 33 235 4.0 5.0 0.00 0.00 0.00 95 1022.3
20260507085014 33 225 5.0 5.0 0.00 0.00 0.00 95 1022.2
20260507084511 33 244 4.0 7.0 0.00 0.00 0.00 94 1022.3
20260507084008 33 256 3.0 5.0 0.00 0.00 0.00 94 1021.8
20260507083504 33 227 5.0 9.0 0.00 0.00 0.00 93 1022.2
20260507083001 33 232 7.0 10.0 0.00 0.00 0.00 92 1022.2
20260507082457 33 129 5.0 7.0 0.00 0.00 0.00 92 1022.3
20260507081953 34 160 5.0 7.0 0.00 0.00 0.00 91 1022.3
20260507081450 34 239 4.0 5.0 0.00 0.00 0.00 90 1022.0
20260507080947 34 239 3.0 3.0 0.00 0.00 0.00 89 1022.3
20260507080442 34 220 8.0 12.0 0.00 0.00 0.00 87 1022.0
20260507075937 34 237 7.0 9.0 0.00 0.00 0.00 85 1022.0
20260507075434 34 188 3.0 7.0 0.00 0.00 0.00 84 1022.2
20260507074925 34 259 3.0 3.0 0.00 0.00 0.00 82 1022.2
20260507074422 35 154 2.0 7.0 0.00 0.00 0.00 76 1022.3
20260507073920 35 246 2.0 3.0 0.00 0.00 0.00 68 1022.3
20260507073416 34 195 5.0 7.0 0.00 0.00 0.00 61 1022.4
20260507072913 39 116 4.0 5.0 0.00 0.00 0.00 49 1022.2
20260507072411 40 291 2.0 2.0 0.00 0.00 0.00 45 1022.3
20260507071908 42 266 0.0 2.0 0.00 0.00 0.00 35 1021.9
20260507071405 42 262 0.0 0.0 0.00 0.00 0.00 37 1022.2
20260507070901 42 258 0.0 0.0 0.00 0.00 0.00 37 1022.0
20260507070359 41 265 1.0 2.0 0.00 0.00 0.00 42 1022.2
20260507065855 40 255 0.0 0.0 0.00 0.00 0.00 40 1022.0
20260507065352 43 99 2.0 3.0 0.00 0.00 0.00 37 1022.0
20260507064849 43 257 0.0 2.0 0.00 0.00 0.00 36 1022.0
20260507064347 42 257 0.0 2.0 0.00 0.00 0.00 39 1022.0
20260507063845 41 261 2.0 2.0 0.00 0.00 0.00 41 1021.9
20260507063342 41 249 0.0 0.0 0.00 0.00 0.00 42 1022.0
20260507062838 41 248 2.0 2.0 0.00 0.00 0.00 42 1021.9
20260507062335 41 259 1.0 2.0 0.00 0.00 0.00 43 1021.9
20260507061833 42 247 2.0 2.0 0.00 0.00 0.00 42 1022.0
20260507061331 42 241 2.0 2.0 0.00 0.00 0.00 41 1021.8
20260507060829 43 256 1.0 2.0 0.00 0.00 0.00 39 1021.7
20260507060326 43 253 5.0 7.0 0.00 0.00 0.00 37 1021.8
20260507055823 43 237 3.0 3.0 0.00 0.00 0.00 40 1021.9
20260507055318 43 265 3.0 3.0 0.00 0.00 0.00 41 1021.7
20260507054814 43 252 2.0 2.0 0.00 0.00 0.00 42 1021.4
20260507054310 43 245 3.0 3.0 0.00 0.00 0.00 42 1021.4
20260507053808 44 252 1.0 2.0 0.00 0.00 0.00 41 1021.5
20260507053306 44 244 2.0 2.0 0.00 0.00 0.00 40 1021.3
20260507052805 44 341 0.0 2.0 0.00 0.00 0.00 41 1021.7
20260507052301 44 257 3.0 5.0 0.00 0.00 0.00 42 1021.3
20260507051759 44 254 2.0 2.0 0.00 0.00 0.00 44 1021.7
20260507051255 45 256 2.0 2.0 0.00 0.00 0.00 44 1021.7
20260507050752 44 249 3.0 3.0 0.00 0.00 0.00 45 1021.7
20260507050249 44 263 2.0 2.0 0.00 0.00 0.00 46 1021.7
20260507045746 44 250 3.0 3.0 0.00 0.00 0.00 47 1021.8
20260507045242 45 234 1.0 2.0 0.00 0.00 0.00 47 1021.4
20260507044739 45 261 0.0 2.0 0.00 0.00 0.00 48 1021.4
20260507044236 45 254 2.0 2.0 0.00 0.00 0.00 49 1021.3
20260507043732 45 252 0.0 2.0 0.00 0.00 0.00 50 1021.5
20260507043229 45 246 0.0 0.0 0.00 0.00 0.00 51 1021.3
20260507042725 46 251 0.0 0.0 0.00 0.00 0.00 50 1021.2
20260507042220 46 249 0.0 0.0 0.00 0.00 0.00 50 1021.0
20260507041718 47 282 4.0 5.0 0.00 0.00 0.00 49 1021.0
20260507041214 47 243 3.0 5.0 0.00 0.00 0.00 49 1021.2
20260507040711 47 241 4.0 7.0 0.00 0.00 0.00 50 1020.9
20260507040208 47 239 3.0 3.0 0.00 0.00 0.00 51 1020.8
20260507035704 47 268 5.0 9.0 0.00 0.00 0.00 50 1020.8
20260507035159 47 242 2.0 3.0 0.00 0.00 0.00 50 1020.5
20260507034656 48 248 5.0 7.0 0.00 0.00 0.00 50 1020.2
20260507034154 48 242 3.0 3.0 0.00 0.00 0.00 50 1020.5
20260507033652 48 308 5.0 5.0 0.00 0.00 0.00 49 1020.2
20260507033149 48 242 6.0 9.0 0.00 0.00 0.00 49 1020.3
20260507032646 48 256 4.0 7.0 0.00 0.00 0.00 49 1020.3
20260507032142 48 273 6.0 7.0 0.00 0.00 0.00 49 1020.3
20260507031639 48 265 5.0 9.0 0.00 0.00 0.00 49 1020.0
20260507031135 48 270 3.0 5.0 0.00 0.00 0.00 49 1020.0
20260507030633 48 260 4.0 5.0 0.00 0.00 0.00 49 1019.8
20260507030131 48 255 4.0 5.0 0.00 0.00 0.00 50 1019.9
20260507025627 48 254 3.0 5.0 0.00 0.00 0.00 51 1019.5